Wetterdaten: Mittwoch, 25.03.2015
Datum Zeit Auen-Temp. Temp gefhlt Luftfeuchte Luftdruck Regen Wind Richtung Richtung Taupunkt Windben
25.03.2015 00:02 4,1 C 3,5 C 70 % 1007,2 hPa 0,0 l/m 0,0 km/h (0 Bft) O-SO 112 -0,9 C 0,0 km/h (0 Bft)
25.03.2015 00:07 4,1 C 3,5 C 69 % 1007,2 hPa 0,0 l/m 0,0 km/h (0 Bft) S-SO 157 -1,1 C 0,0 km/h (0 Bft)
25.03.2015 00:12 4,4 C 3,7 C 69 % 1007,2 hPa 0,0 l/m 0,0 km/h (0 Bft) S 180 -0,8 C 0,0 km/h (0 Bft)
25.03.2015 00:17 3,9 C 3,4 C 68 % 1007,2 hPa 0,0 l/m 0,0 km/h (0 Bft) O-SO 112 -1,5 C 0,0 km/h (0 Bft)
25.03.2015 00:22 3,5 C 3,1 C 68 % 1007,1 hPa 0,0 l/m 0,0 km/h (0 Bft) NW 315 -1,8 C 0,0 km/h (0 Bft)
25.03.2015 00:26 3,5 C 3,1 C 68 % 1007,1 hPa 0,0 l/m 0,0 km/h (0 Bft) NW 315 -1,8 C 0,0 km/h (0 Bft)
25.03.2015 00:30 2,7 C 2,5 C 68 % 1007,1 hPa 0,0 l/m 0,0 km/h (0 Bft) NW 315 -2,6 C 0,0 km/h (0 Bft)
25.03.2015 00:35 2,3 C 2,1 C 69 % 1007,1 hPa 0,0 l/m 0,0 km/h (0 Bft) W-SW 247 -2,8 C 0,0 km/h (0 Bft)
25.03.2015 00:40 2,4 C 2,1 C 70 % 1007,1 hPa 0,0 l/m 0,0 km/h (0 Bft) SW 225 -2,5 C 0,0 km/h (0 Bft)
25.03.2015 00:45 3,9 C 3,2 C 70 % 1006,9 hPa 0,0 l/m 0,0 km/h (0 Bft) SO 135 -1,1 C 0,0 km/h (0 Bft)
25.03.2015 00:50 3,3 C 2,8 C 70 % 1006,9 hPa 0,0 l/m 0,0 km/h (0 Bft) S 180 -1,6 C 0,0 km/h (0 Bft)
25.03.2015 00:55 4,3 C 3,6 C 69 % 1006,9 hPa 0,0 l/m 0,0 km/h (0 Bft) SO 135 -0,9 C 0,0 km/h (0 Bft)
25.03.2015 01:00 4,2 C 3,6 C 68 % 1006,9 hPa 0,0 l/m 0,0 km/h (0 Bft) O-SO 112 -1,2 C 0,0 km/h (0 Bft)
25.03.2015 01:05 4,3 C 3,7 C 68 % 1006,9 hPa 0,0 l/m 0,0 km/h (0 Bft) S-SW 202 -1,1 C 0,0 km/h (0 Bft)
25.03.2015 01:10 4,7 C 4,0 C 67 % 1006,9 hPa 0,0 l/m 0,0 km/h (0 Bft) S 180 -0,9 C 0,0 km/h (0 Bft)
25.03.2015 01:15 4,1 C 3,7 C 66 % 1006,9 hPa 0,0 l/m 0,0 km/h (0 Bft) S 180 -1,7 C 0,0 km/h (0 Bft)
25.03.2015 01:20 3,3 C 3,1 C 66 % 1006,9 hPa 0,0 l/m 0,0 km/h (0 Bft) S 180 -2,4 C 0,0 km/h (0 Bft)
25.03.2015 01:25 3,2 C 2,9 C 67 % 1006,9 hPa 0,0 l/m 0,0 km/h (0 Bft) SO 135 -2,3 C 0,0 km/h (0 Bft)
25.03.2015 01:30 2,3 C 2,3 C 67 % 1006,9 hPa 0,0 l/m 0,0 km/h (0 Bft) S 180 -3,2 C 0,0 km/h (0 Bft)
25.03.2015 01:35 1,6 C 1,5 C 68 % 1006,9 hPa 0,0 l/m 0,0 km/h (0 Bft) S 180 -3,7 C 0,0 km/h (0 Bft)
25.03.2015 01:40 1,5 C 1,3 C 69 % 1006,9 hPa 0,0 l/m 0,0 km/h (0 Bft) S 180 -3,6 C 0,0 km/h (0 Bft)
25.03.2015 01:45 1,6 C 1,3 C 71 % 1006,8 hPa 0,0 l/m 0,0 km/h (0 Bft) S 180 -3,1 C 0,0 km/h (0 Bft)
25.03.2015 01:50 2,1 C 1,6 C 73 % 1006,8 hPa 0,0 l/m 0,0 km/h (0 Bft) O-SO 112 -2,2 C 0,0 km/h (0 Bft)
25.03.2015 01:55 1,6 C 1,2 C 72 % 1006,8 hPa 0,0 l/m 0,0 km/h (0 Bft) O-SO 112 -2,9 C 0,0 km/h (0 Bft)
25.03.2015 01:57 1,7 C 1,3 C 73 % 1006,8 hPa 0,0 l/m 0,0 km/h (0 Bft) SO 135 -2,6 C 0,0 km/h (0 Bft)
25.03.2015 02:00 1,7 C 1,3 C 73 % 1006,8 hPa 0,0 l/m 0,0 km/h (0 Bft) SO 135 -2,6 C 0,0 km/h (0 Bft)
25.03.2015 02:05 2,9 C 2,4 C 73 % 1006,4 hPa 0,0 l/m 0,0 km/h (0 Bft) SO 135 -1,5 C 0,0 km/h (0 Bft)
25.03.2015 02:10 2,8 C 2,4 C 73 % 1006,4 hPa 0,0 l/m 0,0 km/h (0 Bft) S 180 -1,5 C 0,0 km/h (0 Bft)
25.03.2015 02:15 2,1 C 2,0 C 72 % 1006,4 hPa 0,0 l/m 0,0 km/h (0 Bft) O-SO 112 -2,4 C 0,0 km/h (0 Bft)
25.03.2015 02:20 1,6 C 1,6 C 72 % 1006,4 hPa 0,0 l/m 0,0 km/h (0 Bft) NW 315 -2,9 C 0,0 km/h (0 Bft)
25.03.2015 02:25 1,5 C 1,4 C 72 % 1006,4 hPa 0,0 l/m 0,5 km/h (0 Bft) W 270 -3,0 C 0,0 km/h (0 Bft)
25.03.2015 02:30 1,8 C 1,6 C 73 % 1006,4 hPa 0,0 l/m 0,5 km/h (0 Bft) W-SW 247 -2,5 C 0,0 km/h (0 Bft)
25.03.2015 02:35 2,2 C 1,9 C 74 % 1006,4 hPa 0,0 l/m 0,0 km/h (0 Bft) O 90 -1,9 C 0,0 km/h (0 Bft)
25.03.2015 02:40 2,0 C 1,8 C 73 % 1006,4 hPa 0,0 l/m 0,0 km/h (0 Bft) O-SO 112 -2,3 C 0,0 km/h (0 Bft)
25.03.2015 02:45 1,3 C 1,2 C 73 % 1006,1 hPa 0,0 l/m 0,0 km/h (0 Bft) N 360 -3,0 C 0,0 km/h (0 Bft)
25.03.2015 02:50 1,3 C 1,1 C 73 % 1006,1 hPa 0,0 l/m 0,0 km/h (0 Bft) W-NW 292 -3,0 C 0,0 km/h (0 Bft)
25.03.2015 02:55 1,2 C 0,9 C 73 % 1006,1 hPa 0,0 l/m 0,0 km/h (0 Bft) W-NW 292 -3,1 C 0,0 km/h (0 Bft)
25.03.2015 03:00 1,3 C 1,0 C 74 % 1006,1 hPa 0,0 l/m 0,0 km/h (0 Bft) W-NW 292 -2,8 C 0,0 km/h (0 Bft)
25.03.2015 03:05 1,8 C 1,4 C 75 % 1005,9 hPa 0,0 l/m 0,0 km/h (0 Bft) O 90 -2,1 C 0,0 km/h (0 Bft)
25.03.2015 03:10 1,3 C 1,1 C 74 % 1005,9 hPa 0,0 l/m 0,2 km/h (0 Bft) W-NW 292 -2,8 C 0,0 km/h (0 Bft)
25.03.2015 03:15 0,8 C 0,6 C 75 % 1005,9 hPa 0,0 l/m 0,2 km/h (0 Bft) S 180 -3,1 C 0,0 km/h (0 Bft)
25.03.2015 03:20 1,5 C 1,0 C 76 % 1005,9 hPa 0,0 l/m 0,0 km/h (0 Bft) SO 135 -2,3 C 0,0 km/h (0 Bft)
25.03.2015 03:25 1,3 C 0,9 C 76 % 1005,9 hPa 0,0 l/m 0,0 km/h (0 Bft) SO 135 -2,5 C 0,0 km/h (0 Bft)
25.03.2015 03:30 1,7 C 1,2 C 76 % 1005,9 hPa 0,0 l/m 0,0 km/h (0 Bft) O-SO 112 -2,1 C 0,0 km/h (0 Bft)
25.03.2015 03:35 2,2 C 1,7 C 76 % 1005,9 hPa 0,0 l/m 0,0 km/h (0 Bft) O-SO 112 -1,6 C 0,0 km/h (0 Bft)
25.03.2015 03:40 3,1 C 2,8 C 72 % 1005,9 hPa 0,0 l/m 0,3 km/h (0 Bft) O-NO 67 -1,4 C 2,3 km/h (1 Bft)
25.03.2015 03:45 4,3 C 3,8 C 71 % 1005,8 hPa 0,0 l/m 0,3 km/h (0 Bft) S-SO 157 -0,5 C 0,0 km/h (0 Bft)
25.03.2015 03:50 4,4 C 4,0 C 69 % 1005,8 hPa 0,0 l/m 0,2 km/h (0 Bft) S-SO 157 -0,8 C 0,0 km/h (0 Bft)
25.03.2015 03:55 3,8 C 3,7 C 69 % 1005,8 hPa 0,0 l/m 0,0 km/h (0 Bft) O-SO 112 -1,4 C 0,0 km/h (0 Bft)
25.03.2015 04:00 2,5 C 3,1 C 68 % 1005,8 hPa 0,0 l/m 0,3 km/h (0 Bft) NW 315 -2,8 C 0,0 km/h (0 Bft)
25.03.2015 04:05 2,4 C 2,4 C 69 % 1005,9 hPa 0,0 l/m 0,5 km/h (0 Bft) W 270 -2,7 C 0,0 km/h (0 Bft)
25.03.2015 04:10 3,1 C 2,8 C 69 % 1005,9 hPa 0,0 l/m 0,2 km/h (0 Bft) SW 225 -2,0 C 0,0 km/h (0 Bft)
25.03.2015 04:15 3,6 C 3,2 C 69 % 1005,9 hPa 0,0 l/m 0,0 km/h (0 Bft) S-SO 157 -1,5 C 0,0 km/h (0 Bft)
25.03.2015 04:20 2,5 C 2,4 C 68 % 1005,9 hPa 0,0 l/m 0,0 km/h (0 Bft) S-SO 157 -2,8 C 0,0 km/h (0 Bft)
25.03.2015 04:25 2,0 C 2,2 C 69 % 1005,8 hPa 0,0 l/m 0,0 km/h (0 Bft) SO 135 -3,1 C 0,0 km/h (0 Bft)
25.03.2015 04:30 2,6 C 2,6 C 71 % 1005,8 hPa 0,0 l/m 0,0 km/h (0 Bft) SO 135 -2,1 C 0,0 km/h (0 Bft)
25.03.2015 04:35 4,2 C 3,9 C 68 % 1005,8 hPa 0,0 l/m 0,0 km/h (0 Bft) SO 135 -1,2 C 0,0 km/h (0 Bft)
25.03.2015 04:40 4,9 C 4,4 C 67 % 1005,8 hPa 0,0 l/m 0,0 km/h (0 Bft) S-SO 157 -0,7 C 0,0 km/h (0 Bft)
25.03.2015 04:45 5,0 C 4,6 C 64 % 1005,4 hPa 0,0 l/m 0,0 km/h (0 Bft) SO 135 -1,2 C 0,0 km/h (0 Bft)
25.03.2015 04:50 5,0 C 4,6 C 64 % 1005,4 hPa 0,0 l/m 0,0 km/h (0 Bft) SO 135 -1,2 C 0,0 km/h (0 Bft)
25.03.2015 04:55 4,8 C 4,4 C 63 % 1005,4 hPa 0,0 l/m 0,0 km/h (0 Bft) SO 135 -1,6 C 0,0 km/h (0 Bft)
25.03.2015 05:00 4,2 C 4,0 C 63 % 1005,4 hPa 0,0 l/m 0,0 km/h (0 Bft) SO 135 -2,2 C 0,0 km/h (0 Bft)
25.03.2015 05:05 3,2 C 3,2 C 63 % 1005,5 hPa 0,0 l/m 0,0 km/h (0 Bft) SO 135 -3,1 C 0,0 km/h (0 Bft)
25.03.2015 05:10 2,9 C 2,9 C 64 % 1005,5 hPa 0,0 l/m 0,0 km/h (0 Bft) SO 135 -3,2 C 0,0 km/h (0 Bft)
25.03.2015 05:15 3,0 C 2,8 C 65 % 1005,5 hPa 0,0 l/m 0,0 km/h (0 Bft) SO 135 -2,9 C 0,0 km/h (0 Bft)
25.03.2015 05:20 2,7 C 2,5 C 66 % 1005,5 hPa 0,0 l/m 0,0 km/h (0 Bft) S 180 -3,0 C 0,0 km/h (0 Bft)
25.03.2015 05:25 1,9 C 1,8 C 66 % 1005,3 hPa 0,0 l/m 0,2 km/h (0 Bft) W-NW 292 -3,8 C 0,0 km/h (0 Bft)
25.03.2015 05:30 1,9 C 1,7 C 67 % 1005,3 hPa 0,0 l/m 0,2 km/h (0 Bft) W-NW 292 -3,6 C 0,0 km/h (0 Bft)
25.03.2015 05:35 2,5 C 2,0 C 68 % 1005,3 hPa 0,0 l/m 0,0 km/h (0 Bft) W-NW 292 -2,8 C 0,0 km/h (0 Bft)
25.03.2015 05:40 2,6 C 2,2 C 68 % 1005,3 hPa 0,0 l/m 0,0 km/h (0 Bft) W-NW 292 -2,7 C 0,0 km/h (0 Bft)
25.03.2015 05:45 2,8 C 2,4 C 68 % 1005,2 hPa 0,0 l/m 0,0 km/h (0 Bft) W-NW 292 -2,5 C 0,0 km/h (0 Bft)
25.03.2015 05:50 3,4 C 2,8 C 68 % 1005,2 hPa 0,0 l/m 0,0 km/h (0 Bft) S 180 -1,9 C 0,0 km/h (0 Bft)
25.03.2015 05:55 3,0 C 2,7 C 67 % 1005,2 hPa 0,0 l/m 0,0 km/h (0 Bft) S 180 -2,5 C 0,0 km/h (0 Bft)
25.03.2015 06:00 3,1 C 2,8 C 68 % 1005,2 hPa 0,0 l/m 0,0 km/h (0 Bft) S 180 -2,2 C 0,0 km/h (0 Bft)
25.03.2015 06:05 3,2 C 2,9 C 68 % 1005,1 hPa 0,0 l/m 0,0 km/h (0 Bft) S 180 -2,1 C 0,0 km/h (0 Bft)
25.03.2015 06:10 3,1 C 2,8 C 68 % 1005,1 hPa 0,0 l/m 0,0 km/h (0 Bft) S 180 -2,2 C 0,0 km/h (0 Bft)
25.03.2015 06:15 3,2 C 2,9 C 68 % 1005,1 hPa 0,0 l/m 0,0 km/h (0 Bft) S 180 -2,1 C 0,0 km/h (0 Bft)
25.03.2015 06:20 3,7 C 3,2 C 68 % 1005,1 hPa 0,0 l/m 0,0 km/h (0 Bft) S 180 -1,6 C 0,0 km/h (0 Bft)
25.03.2015 06:25 3,3 C 3,0 C 67 % 1004,9 hPa 0,0 l/m 0,0 km/h (0 Bft) S 180 -2,2 C 0,0 km/h (0 Bft)
25.03.2015 06:30 3,4 C 3,1 C 67 % 1004,9 hPa 0,0 l/m 0,0 km/h (0 Bft) S 180 -2,1 C 0,0 km/h (0 Bft)
25.03.2015 06:35 3,8 C 3,5 C 67 % 1004,9 hPa 0,0 l/m 0,0 km/h (0 Bft) S 180 -1,8 C 0,0 km/h (0 Bft)
25.03.2015 06:40 3,4 C 3,3 C 67 % 1004,9 hPa 0,0 l/m 0,0 km/h (0 Bft) S 180 -2,1 C 0,0 km/h (0 Bft)
25.03.2015 06:45 3,4 C 3,3 C 67 % 1005,1 hPa 0,0 l/m 0,0 km/h (0 Bft) S 180 -2,1 C 0,0 km/h (0 Bft)
25.03.2015 06:50 3,6 C 3,5 C 67 % 1005,1 hPa 0,0 l/m 0,0 km/h (0 Bft) S 180 -1,9 C 0,0 km/h (0 Bft)
25.03.2015 06:55 3,9 C 3,9 C 67 % 1005,1 hPa 0,0 l/m 0,2 km/h (0 Bft) N-NW 337 -1,7 C 0,0 km/h (0 Bft)
25.03.2015 07:00 4,1 C 4,1 C 66 % 1005,1 hPa 0,0 l/m 0,2 km/h (0 Bft) N-NW 337 -1,7 C 0,0 km/h (0 Bft)
25.03.2015 07:05 3,9 C 4,3 C 66 % 1004,9 hPa 0,0 l/m 0,0 km/h (0 Bft) N-NO 22 -1,9 C 0,0 km/h (0 Bft)
25.03.2015 07:10 3,9 C 4,5 C 66 % 1004,9 hPa 0,0 l/m 0,2 km/h (0 Bft) NW 315 -1,9 C 0,0 km/h (0 Bft)
25.03.2015 07:15 4,3 C 5,1 C 65 % 1004,9 hPa 0,0 l/m 0,3 km/h (0 Bft) NO 45 -1,7 C 0,0 km/h (0 Bft)
25.03.2015 07:20 4,3 C 5,5 C 66 % 1004,9 hPa 0,0 l/m 0,2 km/h (0 Bft) NO 45 -1,5 C 0,0 km/h (0 Bft)
25.03.2015 07:25 4,5 C 6,4 C 65 % 1004,8 hPa 0,0 l/m 0,0 km/h (0 Bft) N-NO 22 -1,5 C 0,0 km/h (0 Bft)
25.03.2015 07:30 4,6 C 6,7 C 65 % 1004,8 hPa 0,0 l/m 0,0 km/h (0 Bft) N-NO 22 -1,4 C 0,0 km/h (0 Bft)
25.03.2015 07:35 4,6 C 6,7 C 65 % 1004,8 hPa 0,0 l/m 0,0 km/h (0 Bft) NW 315 -1,4 C 1,8 km/h (1 Bft)
25.03.2015 07:40 4,7 C 6,7 C 65 % 1004,8 hPa 0,0 l/m 0,5 km/h (0 Bft) W-NW 292 -1,3 C 3,7 km/h (1 Bft)
25.03.2015 07:45 5,1 C 6,7 C 64 % 1004,7 hPa 0,0 l/m 0,6 km/h (0 Bft) W-NW 292 -1,1 C 0,0 km/h (0 Bft)
25.03.2015 07:50 5,2 C 6,9 C 65 % 1004,7 hPa 0,0 l/m 0,5 km/h (0 Bft) NW 315 -0,8 C 0,0 km/h (0 Bft)
25.03.2015 07:55 5,3 C 6,9 C 64 % 1004,7 hPa 0,0 l/m 0,3 km/h (0 Bft) N-NO 22 -0,9 C 0,0 km/h (0 Bft)
25.03.2015 08:00 5,4 C 6,9 C 64 % 1004,7 hPa 0,0 l/m 0,3 km/h (0 Bft) N-NO 22 -0,9 C 0,0 km/h (0 Bft)
25.03.2015 08:05 5,6 C 7,2 C 64 % 1004,8 hPa 0,0 l/m 0,0 km/h (0 Bft) N-NO 22 -0,7 C 0,0 km/h (0 Bft)
25.03.2015 08:10 6,0 C 7,5 C 62 % 1004,8 hPa 0,0 l/m 0,0 km/h (0 Bft) N-NO 22 -0,7 C 0,0 km/h (0 Bft)
25.03.2015 08:15 6,2 C 8,3 C 62 % 1004,8 hPa 0,0 l/m 0,2 km/h (0 Bft) N-NO 22 -0,5 C 1,6 km/h (1 Bft)
25.03.2015 08:20 6,5 C 9,3 C 62 % 1004,8 hPa 0,0 l/m 0,2 km/h (0 Bft) N-NO 22 -0,2 C 0,0 km/h (0 Bft)
25.03.2015 08:25 7,0 C 11,0 C 61 % 1004,8 hPa 0,0 l/m 0,2 km/h (0 Bft) N-NO 22 0,0 C 0,0 km/h (0 Bft)
25.03.2015 08:30 7,2 C 12,3 C 60 % 1004,8 hPa 0,0 l/m 0,0 km/h (0 Bft) N-NO 22 -0,0 C 0,0 km/h (0 Bft)
25.03.2015 08:35 7,5 C 13,1 C 60 % 1004,8 hPa 0,0 l/m 0,0 km/h (0 Bft) N-NO 22 0,2 C 0,0 km/h (0 Bft)
25.03.2015 08:40 7,8 C 13,7 C 59 % 1004,8 hPa 0,0 l/m 0,0 km/h (0 Bft) N-NO 22 0,3 C 0,0 km/h (0 Bft)
25.03.2015 08:45 8,1 C 14,6 C 59 % 1004,9 hPa 0,0 l/m 0,0 km/h (0 Bft) N-NO 22 0,6 C 0,0 km/h (0 Bft)
25.03.2015 08:50 8,5 C 14,8 C 59 % 1004,9 hPa 0,0 l/m 0,0 km/h (0 Bft) N-NO 22 1,0 C 0,0 km/h (0 Bft)
25.03.2015 08:55 8,9 C 14,7 C 58 % 1004,9 hPa 0,0 l/m 0,0 km/h (0 Bft) N-NO 22 1,1 C 0,0 km/h (0 Bft)
25.03.2015 09:00 8,9 C 14,6 C 58 % 1004,9 hPa 0,0 l/m 0,0 km/h (0 Bft) N-NO 22 1,1 C 0,0 km/h (0 Bft)
25.03.2015 09:05 9,4 C 15,3 C 58 % 1005,1 hPa 0,0 l/m 0,0 km/h (0 Bft) N-NO 22 1,6 C 0,0 km/h (0 Bft)
25.03.2015 09:10 9,9 C 15,4 C 57 % 1005,1 hPa 0,0 l/m 0,3 km/h (0 Bft) NO 45 1,8 C 1,8 km/h (1 Bft)
25.03.2015 09:15 10,0 C 15,5 C 57 % 1005,1 hPa 0,0 l/m 0,8 km/h (0 Bft) N-NO 22 1,9 C 2,6 km/h (1 Bft)
25.03.2015 09:20 10,3 C 15,6 C 57 % 1005,1 hPa 0,0 l/m 1,1 km/h (1 Bft) N-NW 337 2,2 C 2,6 km/h (1 Bft)
25.03.2015 09:25 10,4 C 15,5 C 57 % 1005,3 hPa 0,0 l/m 1,8 km/h (1 Bft) N-NW 337 2,3 C 4,0 km/h (1 Bft)
25.03.2015 09:30 10,6 C 15,6 C 57 % 1005,3 hPa 0,0 l/m 1,1 km/h (1 Bft) N-NO 22 2,4 C 0,0 km/h (0 Bft)
25.03.2015 09:35 10,5 C 15,0 C 57 % 1005,3 hPa 0,0 l/m 1,6 km/h (1 Bft) NO 45 2,3 C 4,8 km/h (1 Bft)
25.03.2015 09:40 10,5 C 14,8 C 57 % 1005,3 hPa 0,0 l/m 1,9 km/h (1 Bft) O-NO 67 2,3 C 1,6 km/h (1 Bft)
25.03.2015 09:45 10,5 C 14,9 C 56 % 1005,1 hPa 0,0 l/m 0,8 km/h (0 Bft) NO 45 2,1 C 1,8 km/h (1 Bft)
25.03.2015 09:50 10,8 C 15,2 C 56 % 1005,1 hPa 0,0 l/m 0,8 km/h (0 Bft) NO 45 2,4 C 2,6 km/h (1 Bft)
25.03.2015 09:55 10,9 C 15,8 C 56 % 1005,1 hPa 0,0 l/m 1,9 km/h (1 Bft) NO 45 2,5 C 2,7 km/h (1 Bft)
25.03.2015 10:00 11,2 C 16,2 C 55 % 1005,1 hPa 0,0 l/m 2,6 km/h (1 Bft) O-NO 67 2,5 C 3,1 km/h (1 Bft)
25.03.2015 10:05 11,5 C 16,5 C 55 % 1005,1 hPa 0,0 l/m 3,2 km/h (1 Bft) N-NO 22 2,8 C 7,7 km/h (2 Bft)
25.03.2015 10:10 11,5 C 16,2 C 55 % 1005,1 hPa 0,0 l/m 3,5 km/h (1 Bft) O-NO 67 2,8 C 4,5 km/h (1 Bft)
25.03.2015 10:15 11,7 C 16,2 C 54 % 1005,1 hPa 0,0 l/m 3,9 km/h (1 Bft) NO 45 2,7 C 3,4 km/h (1 Bft)
25.03.2015 10:20 12,0 C 16,4 C 54 % 1005,1 hPa 0,0 l/m 3,5 km/h (1 Bft) O-NO 67 3,0 C 8,7 km/h (2 Bft)
25.03.2015 10:25 12,1 C 16,3 C 52 % 1005,1 hPa 0,0 l/m 4,8 km/h (1 Bft) NO 45 2,5 C 11,6 km/h (2 Bft)
25.03.2015 10:30 12,2 C 16,2 C 52 % 1005,1 hPa 0,0 l/m 5,8 km/h (2 Bft) O-NO 67 2,6 C 4,0 km/h (1 Bft)
25.03.2015 10:35 12,6 C 16,7 C 53 % 1005,1 hPa 0,0 l/m 5,1 km/h (1 Bft) O-NO 67 3,3 C 7,7 km/h (2 Bft)
25.03.2015 10:40 12,6 C 16,6 C 52 % 1005,1 hPa 0,0 l/m 5,0 km/h (1 Bft) O-NO 67 3,0 C 8,9 km/h (2 Bft)
25.03.2015 10:45 12,8 C 16,6 C 52 % 1005,2 hPa 0,0 l/m 5,5 km/h (1 Bft) O-NO 67 3,2 C 8,4 km/h (2 Bft)
25.03.2015 10:50 12,8 C 16,5 C 51 % 1005,2 hPa 0,0 l/m 5,6 km/h (1 Bft) SO 135 2,9 C 5,3 km/h (1 Bft)
25.03.2015 10:55 13,0 C 16,6 C 49 % 1005,2 hPa 0,0 l/m 6,4 km/h (2 Bft) NO 45 2,5 C 12,1 km/h (2 Bft)
25.03.2015 11:00 13,1 C 16,8 C 49 % 1005,2 hPa 0,0 l/m 6,1 km/h (2 Bft) O-NO 67 2,6 C 7,1 km/h (2 Bft)
25.03.2015 11:05 13,3 C 17,1 C 49 % 1005,2 hPa 0,0 l/m 6,3 km/h (2 Bft) O-NO 67 2,8 C 5,5 km/h (1 Bft)
25.03.2015 11:10 13,5 C 17,2 C 49 % 1005,2 hPa 0,0 l/m 6,0 km/h (2 Bft) NO 45 3,0 C 5,8 km/h (2 Bft)
25.03.2015 11:15 13,6 C 17,3 C 47 % 1005,2 hPa 0,0 l/m 5,5 km/h (1 Bft) O-NO 67 2,5 C 5,0 km/h (1 Bft)
25.03.2015 11:20 13,7 C 17,3 C 47 % 1005,2 hPa 0,0 l/m 5,6 km/h (1 Bft) NO 45 2,6 C 7,4 km/h (2 Bft)
25.03.2015 11:25 13,5 C 16,9 C 46 % 1005,1 hPa 0,0 l/m 5,0 km/h (1 Bft) O-NO 67 2,1 C 6,3 km/h (2 Bft)
25.03.2015 11:30 13,5 C 16,8 C 47 % 1005,1 hPa 0,0 l/m 4,8 km/h (1 Bft) O-NO 67 2,4 C 2,9 km/h (1 Bft)
25.03.2015 11:35 13,5 C 16,9 C 46 % 1005,1 hPa 0,0 l/m 4,8 km/h (1 Bft) O-NO 67 2,1 C 7,6 km/h (2 Bft)
25.03.2015 11:40 13,5 C 16,6 C 46 % 1005,1 hPa 0,0 l/m 5,3 km/h (1 Bft) NO 45 2,1 C 9,3 km/h (2 Bft)
25.03.2015 11:45 13,5 C 16,6 C 46 % 1004,9 hPa 0,0 l/m 5,3 km/h (1 Bft) O-NO 67 2,1 C 6,6 km/h (2 Bft)
25.03.2015 11:50 13,4 C 16,5 C 46 % 1004,9 hPa 0,0 l/m 5,6 km/h (1 Bft) N-NO 22 2,0 C 7,9 km/h (2 Bft)
25.03.2015 11:55 13,3 C 15,8 C 45 % 1004,9 hPa 0,0 l/m 7,1 km/h (2 Bft) O-NO 67 1,6 C 12,2 km/h (2 Bft)
25.03.2015 12:00 13,3 C 15,6 C 46 % 1004,9 hPa 0,0 l/m 7,6 km/h (2 Bft) NO 45 1,9 C 9,7 km/h (2 Bft)
25.03.2015 12:05 13,3 C 15,6 C 46 % 1004,7 hPa 0,0 l/m 6,9 km/h (2 Bft) N-NO 22 1,9 C 8,7 km/h (2 Bft)
25.03.2015 12:10 13,3 C 15,5 C 47 % 1004,7 hPa 0,0 l/m 6,9 km/h (2 Bft) O-SO 112 2,2 C 7,4 km/h (2 Bft)
25.03.2015 12:15 13,2 C 15,5 C 48 % 1004,7 hPa 0,0 l/m 6,6 km/h (2 Bft) NW 315 2,4 C 4,0 km/h (1 Bft)
25.03.2015 12:20 13,3 C 15,6 C 48 % 1004,7 hPa 0,0 l/m 6,0 km/h (2 Bft) O 90 2,5 C 2,3 km/h (1 Bft)
25.03.2015 12:25 13,3 C 15,8 C 49 % 1004,5 hPa 0,0 l/m 5,5 km/h (1 Bft) O-NO 67 2,8 C 13,7 km/h (3 Bft)
25.03.2015 12:30 13,3 C 15,7 C 49 % 1004,5 hPa 0,0 l/m 5,5 km/h (1 Bft) O-NO 67 2,8 C 6,1 km/h (2 Bft)
25.03.2015 12:35 13,4 C 15,7 C 50 % 1004,5 hPa 0,0 l/m 6,0 km/h (2 Bft) O-NO 67 3,2 C 10,0 km/h (2 Bft)
25.03.2015 12:40 13,5 C 15,6 C 50 % 1004,5 hPa 0,0 l/m 6,0 km/h (2 Bft) NO 45 3,3 C 8,5 km/h (2 Bft)
25.03.2015 12:45 13,6 C 15,6 C 50 % 1004,2 hPa 0,0 l/m 6,0 km/h (2 Bft) NO 45 3,4 C 11,6 km/h (2 Bft)
25.03.2015 12:50 13,5 C 15,4 C 49 % 1004,2 hPa 0,0 l/m 6,3 km/h (2 Bft) NO 45 3,0 C 7,4 km/h (2 Bft)
25.03.2015 12:55 13,7 C 15,6 C 49 % 1004,2 hPa 0,0 l/m 5,8 km/h (2 Bft) O-NO 67 3,2 C 4,3 km/h (1 Bft)
25.03.2015 13:00 13,6 C 15,5 C 49 % 1004,2 hPa 0,0 l/m 5,6 km/h (1 Bft) N-NW 337 3,1 C 7,4 km/h (2 Bft)
25.03.2015 13:05 13,5 C 15,5 C 49 % 1003,8 hPa 0,0 l/m 5,8 km/h (2 Bft) N-NO 22 3,0 C 7,2 km/h (2 Bft)
25.03.2015 13:10 13,6 C 15,5 C 49 % 1003,8 hPa 0,0 l/m 5,3 km/h (1 Bft) N-NO 22 3,1 C 6,6 km/h (2 Bft)
25.03.2015 13:15 13,6 C 15,5 C 49 % 1003,8 hPa 0,0 l/m 5,1 km/h (1 Bft) N-NO 22 3,1 C 9,7 km/h (2 Bft)
25.03.2015 13:20 13,6 C 15,5 C 48 % 1003,8 hPa 0,0 l/m 6,4 km/h (2 Bft) N-NO 22 2,8 C 9,3 km/h (2 Bft)
25.03.2015 13:25 13,5 C 15,1 C 47 % 1003,4 hPa 0,0 l/m 7,1 km/h (2 Bft) O-NO 67 2,4 C 10,0 km/h (2 Bft)
25.03.2015 13:30 13,5 C 15,0 C 46 % 1003,4 hPa 0,0 l/m 7,1 km/h (2 Bft) NO 45 2,1 C 7,7 km/h (2 Bft)
25.03.2015 13:35 13,4 C 14,9 C 46 % 1003,4 hPa 0,0 l/m 6,0 km/h (2 Bft) N-NO 22 2,0 C 5,3 km/h (1 Bft)
25.03.2015 13:40 13,6 C 15,0 C 47 % 1003,4 hPa 0,0 l/m 5,3 km/h (1 Bft) NO 45 2,5 C 7,7 km/h (2 Bft)
25.03.2015 13:45 13,5 C 15,0 C 46 % 1003,1 hPa 0,0 l/m 4,5 km/h (1 Bft) O-NO 67 2,1 C 3,4 km/h (1 Bft)
25.03.2015 13:50 13,5 C 15,0 C 47 % 1003,1 hPa 0,0 l/m 4,2 km/h (1 Bft) NO 45 2,4 C 2,9 km/h (1 Bft)
25.03.2015 13:55 13,5 C 15,0 C 47 % 1003,1 hPa 0,0 l/m 3,5 km/h (1 Bft) O-NO 67 2,4 C 7,6 km/h (2 Bft)
25.03.2015 14:00 13,5 C 15,0 C 47 % 1003,1 hPa 0,0 l/m 3,4 km/h (1 Bft) O-NO 67 2,4 C 4,2 km/h (1 Bft)
25.03.2015 14:05 13,4 C 14,8 C 47 % 1003,0 hPa 0,0 l/m 3,7 km/h (1 Bft) O-SO 112 2,3 C 7,2 km/h (2 Bft)
25.03.2015 14:10 13,4 C 14,7 C 46 % 1003,0 hPa 0,0 l/m 4,3 km/h (1 Bft) NO 45 2,0 C 8,0 km/h (2 Bft)
25.03.2015 14:15 13,4 C 14,5 C 47 % 1003,0 hPa 0,0 l/m 4,2 km/h (1 Bft) O-NO 67 2,3 C 4,0 km/h (1 Bft)
25.03.2015 14:20 13,4 C 14,5 C 47 % 1003,0 hPa 0,0 l/m 3,9 km/h (1 Bft) NO 45 2,3 C 4,5 km/h (1 Bft)
25.03.2015 14:25 13,3 C 14,2 C 48 % 1002,9 hPa 0,0 l/m 3,7 km/h (1 Bft) O-NO 67 2,5 C 6,0 km/h (2 Bft)
25.03.2015 14:30 13,2 C 14,1 C 48 % 1002,9 hPa 0,0 l/m 4,0 km/h (1 Bft) O-NO 67 2,4 C 4,5 km/h (1 Bft)
25.03.2015 14:35 13,2 C 14,0 C 48 % 1002,9 hPa 0,0 l/m 3,9 km/h (1 Bft) O-NO 67 2,4 C 4,0 km/h (1 Bft)
25.03.2015 14:40 13,1 C 13,9 C 48 % 1002,9 hPa 0,0 l/m 3,5 km/h (1 Bft) O 90 2,3 C 6,3 km/h (2 Bft)
25.03.2015 14:45 13,0 C 13,8 C 47 % 1002,8 hPa 0,0 l/m 5,1 km/h (1 Bft) NO 45 2,0 C 9,5 km/h (2 Bft)
25.03.2015 14:50 12,9 C 13,7 C 48 % 1002,8 hPa 0,0 l/m 5,6 km/h (1 Bft) NO 45 2,2 C 4,5 km/h (1 Bft)
25.03.2015 14:55 12,8 C 13,6 C 48 % 1002,8 hPa 0,0 l/m 5,3 km/h (1 Bft) O-NO 67 2,1 C 9,5 km/h (2 Bft)
25.03.2015 15:00 12,7 C 13,5 C 48 % 1002,8 hPa 0,0 l/m 5,1 km/h (1 Bft) NO 45 2,0 C 5,1 km/h (1 Bft)
25.03.2015 15:05 12,7 C 13,3 C 48 % 1002,8 hPa 0,0 l/m 4,5 km/h (1 Bft) O-NO 67 2,0 C 3,1 km/h (1 Bft)
25.03.2015 15:10 12,6 C 13,3 C 48 % 1002,8 hPa 0,0 l/m 3,5 km/h (1 Bft) N-NO 22 1,9 C 2,4 km/h (1 Bft)
25.03.2015 15:15 12,6 C 13,3 C 49 % 1002,8 hPa 0,0 l/m 2,9 km/h (1 Bft) N-NO 22 2,2 C 2,9 km/h (1 Bft)
25.03.2015 15:20 12,6 C 13,2 C 49 % 1002,8 hPa 0,0 l/m 2,6 km/h (1 Bft) NO 45 2,2 C 3,4 km/h (1 Bft)
25.03.2015 15:25 12,5 C 13,1 C 49 % 1002,5 hPa 0,0 l/m 2,7 km/h (1 Bft) N-NO 22 2,1 C 2,4 km/h (1 Bft)
25.03.2015 15:30 12,4 C 13,0 C 48 % 1002,5 hPa 0,0 l/m 2,9 km/h (1 Bft) N-NO 22 1,7 C 6,1 km/h (2 Bft)
25.03.2015 15:35 12,3 C 12,9 C 49 % 1002,5 hPa 0,0 l/m 2,6 km/h (1 Bft) O-NO 67 1,9 C 1,8 km/h (1 Bft)
25.03.2015 15:40 12,2 C 12,8 C 49 % 1002,5 hPa 0,0 l/m 3,1 km/h (1 Bft) O-NO 67 1,8 C 4,0 km/h (1 Bft)
25.03.2015 15:45 12,2 C 12,7 C 49 % 1002,8 hPa 0,0 l/m 3,4 km/h (1 Bft) NO 45 1,8 C 2,9 km/h (1 Bft)
25.03.2015 15:50 12,2 C 12,7 C 49 % 1002,8 hPa 0,0 l/m 3,4 km/h (1 Bft) N-NW 337 1,8 C 4,0 km/h (1 Bft)
25.03.2015 15:55 12,2 C 12,7 C 49 % 1002,8 hPa 0,0 l/m 2,9 km/h (1 Bft) O-NO 67 1,8 C 1,9 km/h (1 Bft)
25.03.2015 16:00 12,1 C 12,7 C 49 % 1002,8 hPa 0,0 l/m 3,1 km/h (1 Bft) NO 45 1,7 C 3,9 km/h (1 Bft)
25.03.2015 16:05 12,1 C 12,5 C 49 % 1002,7 hPa 0,0 l/m 3,5 km/h (1 Bft) O-NO 67 1,7 C 3,4 km/h (1 Bft)
25.03.2015 16:10 12,0 C 12,4 C 49 % 1002,7 hPa 0,0 l/m 4,0 km/h (1 Bft) NO 45 1,6 C 6,1 km/h (2 Bft)
25.03.2015 16:15 11,9 C 12,2 C 50 % 1002,7 hPa 0,0 l/m 3,5 km/h (1 Bft) NO 45 1,8 C 1,6 km/h (1 Bft)
25.03.2015 16:20 11,8 C 12,2 C 51 % 1002,7 hPa 0,0 l/m 3,1 km/h (1 Bft) O-NO 67 2,0 C 4,3 km/h (1 Bft)
25.03.2015 16:25 11,6 C 12,0 C 52 % 1002,8 hPa 0,0 l/m 1,6 km/h (1 Bft) NO 45 2,1 C 0,0 km/h (0 Bft)
25.03.2015 16:30 11,6 C 12,0 C 52 % 1002,8 hPa 0,0 l/m 1,6 km/h (1 Bft) NO 45 2,1 C 4,5 km/h (1 Bft)
25.03.2015 16:35 11,5 C 11,7 C 52 % 1002,8 hPa 0,0 l/m 1,4 km/h (1 Bft) N-NO 22 2,0 C 0,0 km/h (0 Bft)
25.03.2015 16:40 11,4 C 11,7 C 52 % 1002,8 hPa 0,0 l/m 1,4 km/h (1 Bft) O 90 1,9 C 0,0 km/h (0 Bft)
25.03.2015 16:45 11,2 C 11,5 C 53 % 1002,8 hPa 0,0 l/m 1,4 km/h (1 Bft) O 90 2,0 C 0,0 km/h (0 Bft)
25.03.2015 16:50 11,1 C 11,4 C 53 % 1002,8 hPa 0,0 l/m 1,0 km/h (0 Bft) O-NO 67 1,9 C 0,0 km/h (0 Bft)
25.03.2015 16:55 10,9 C 11,2 C 53 % 1002,8 hPa 0,0 l/m 0,2 km/h (0 Bft) O 90 1,7 C 0,0 km/h (0 Bft)
25.03.2015 17:00 10,8 C 11,1 C 54 % 1002,8 hPa 0,0 l/m 0,2 km/h (0 Bft) O-NO 67 1,9 C 0,0 km/h (0 Bft)
25.03.2015 17:05 10,6 C 10,8 C 54 % 1003,0 hPa 0,0 l/m 0,3 km/h (0 Bft) O-SO 112 1,7 C 0,0 km/h (0 Bft)
25.03.2015 17:10 10,6 C 10,8 C 54 % 1003,0 hPa 0,0 l/m 0,2 km/h (0 Bft) O-SO 112 1,7 C 0,0 km/h (0 Bft)
25.03.2015 17:15 10,4 C 10,5 C 55 % 1003,0 hPa 0,0 l/m 0,0 km/h (0 Bft) O-SO 112 1,8 C 0,0 km/h (0 Bft)
25.03.2015 17:20 10,3 C 10,3 C 55 % 1003,0 hPa 0,0 l/m 0,0 km/h (0 Bft) O-SO 112 1,7 C 0,0 km/h (0 Bft)
25.03.2015 17:25 10,2 C 10,2 C 55 % 1002,9 hPa 0,0 l/m 0,0 km/h (0 Bft) O-SO 112 1,6 C 0,0 km/h (0 Bft)
25.03.2015 17:30 10,2 C 10,2 C 55 % 1002,9 hPa 0,0 l/m 0,0 km/h (0 Bft) O-SO 112 1,6 C 0,0 km/h (0 Bft)
25.03.2015 17:35 10,0 C 10,0 C 56 % 1002,9 hPa 0,0 l/m 0,0 km/h (0 Bft) O-SO 112 1,6 C 0,0 km/h (0 Bft)
25.03.2015 17:40 9,9 C 9,9 C 56 % 1002,9 hPa 0,0 l/m 0,0 km/h (0 Bft) O-SO 112 1,5 C 0,0 km/h (0 Bft)
25.03.2015 17:45 9,7 C 9,7 C 56 % 1003,1 hPa 0,0 l/m 0,0 km/h (0 Bft) O-SO 112 1,4 C 0,0 km/h (0 Bft)
25.03.2015 17:50 9,8 C 9,7 C 56 % 1003,1 hPa 0,0 l/m 0,0 km/h (0 Bft) O-SO 112 1,4 C 0,0 km/h (0 Bft)
25.03.2015 17:55 9,8 C 9,7 C 57 % 1003,1 hPa 0,0 l/m 0,0 km/h (0 Bft) O-SO 112 1,7 C 0,0 km/h (0 Bft)
25.03.2015 18:00 9,7 C 9,6 C 57 % 1003,1 hPa 0,0 l/m 0,0 km/h (0 Bft) O-SO 112 1,6 C 0,0 km/h (0 Bft)
25.03.2015 18:05 9,6 C 9,5 C 58 % 1003,2 hPa 0,0 l/m 0,0 km/h (0 Bft) O-SO 112 1,8 C 0,0 km/h (0 Bft)
25.03.2015 18:10 9,5 C 9,4 C 58 % 1003,2 hPa 0,0 l/m 0,0 km/h (0 Bft) O-SO 112 1,7 C 0,0 km/h (0 Bft)
25.03.2015 18:15 9,3 C 9,3 C 60 % 1003,2 hPa 0,0 l/m 0,8 km/h (0 Bft) O-SO 112 1,9 C 0,0 km/h (0 Bft)
25.03.2015 18:20 9,3 C 9,3 C 60 % 1003,2 hPa 0,0 l/m 1,4 km/h (1 Bft) O-SO 112 1,9 C 2,3 km/h (1 Bft)
25.03.2015 18:25 9,2 C 9,2 C 61 % 1003,2 hPa 0,0 l/m 1,8 km/h (1 Bft) O-SO 112 2,1 C 2,3 km/h (1 Bft)
25.03.2015 18:30 9,1 C 9,1 C 60 % 1003,2 hPa 0,0 l/m 1,9 km/h (1 Bft) O-SO 112 1,8 C 2,1 km/h (1 Bft)
25.03.2015 18:35 9,0 C 9,1 C 61 % 1003,2 hPa 0,0 l/m 1,8 km/h (1 Bft) O-SO 112 1,9 C 1,8 km/h (1 Bft)
25.03.2015 18:40 8,8 C 9,0 C 61 % 1003,2 hPa 0,0 l/m 1,4 km/h (1 Bft) O-SO 112 1,7 C 0,0 km/h (0 Bft)
25.03.2015 18:45 8,6 C 8,7 C 62 % 1003,2 hPa 0,0 l/m 0,5 km/h (0 Bft) O-SO 112 1,7 C 0,0 km/h (0 Bft)
25.03.2015 18:50 8,5 C 8,6 C 63 % 1003,2 hPa 0,0 l/m 0,0 km/h (0 Bft) O-SO 112 1,9 C 0,0 km/h (0 Bft)
25.03.2015 18:55 8,3 C 8,4 C 65 % 1003,2 hPa 0,0 l/m 0,0 km/h (0 Bft) O-SO 112 2,1 C 0,0 km/h (0 Bft)
25.03.2015 19:00 8,3 C 8,3 C 65 % 1003,2 hPa 0,0 l/m 0,0 km/h (0 Bft) O-SO 112 2,1 C 0,0 km/h (0 Bft)
25.03.2015 19:05 8,2 C 8,2 C 65 % 1003,2 hPa 0,0 l/m 0,0 km/h (0 Bft) O-SO 112 2,0 C 0,0 km/h (0 Bft)
25.03.2015 19:10 8,2 C 8,1 C 65 % 1003,2 hPa 0,0 l/m 0,0 km/h (0 Bft) O-SO 112 2,0 C 0,0 km/h (0 Bft)
25.03.2015 19:15 8,0 C 8,0 C 65 % 1003,2 hPa 0,0 l/m 0,5 km/h (0 Bft) SW 225 1,8 C 2,6 km/h (1 Bft)
25.03.2015 19:20 7,9 C 7,9 C 65 % 1003,2 hPa 0,0 l/m 1,0 km/h (0 Bft) S 180 1,7 C 2,1 km/h (1 Bft)
25.03.2015 19:25 8,0 C 7,9 C 64 % 1003,2 hPa 0,0 l/m 1,9 km/h (1 Bft) S 180 1,6 C 6,3 km/h (2 Bft)
25.03.2015 19:30 8,1 C 8,0 C 64 % 1003,2 hPa 0,0 l/m 2,7 km/h (1 Bft) S 180 1,7 C 0,0 km/h (0 Bft)
25.03.2015 19:35 8,0 C 8,0 C 64 % 1003,2 hPa 0,0 l/m 2,9 km/h (1 Bft) S 180 1,6 C 0,0 km/h (0 Bft)
25.03.2015 19:40 7,9 C 7,9 C 64 % 1003,2 hPa 0,0 l/m 1,4 km/h (1 Bft) S-SW 202 1,5 C 0,0 km/h (0 Bft)
25.03.2015 19:45 8,0 C 7,9 C 65 % 1003,3 hPa 0,0 l/m 1,8 km/h (1 Bft) S 180 1,8 C 7,1 km/h (2 Bft)
25.03.2015 19:50 8,1 C 8,0 C 64 % 1003,3 hPa 0,0 l/m 2,9 km/h (1 Bft) S 180 1,7 C 3,2 km/h (1 Bft)
25.03.2015 19:55 8,1 C 8,1 C 63 % 1003,3 hPa 0,0 l/m 3,5 km/h (1 Bft) W-SW 247 1,5 C 3,2 km/h (1 Bft)
25.03.2015 20:00 8,2 C 8,2 C 63 % 1003,3 hPa 0,0 l/m 2,9 km/h (1 Bft) S-SW 202 1,6 C 3,4 km/h (1 Bft)
25.03.2015 20:05 8,2 C 8,2 C 63 % 1003,4 hPa 0,0 l/m 2,9 km/h (1 Bft) SW 225 1,6 C 1,9 km/h (1 Bft)
25.03.2015 20:10 8,1 C 8,1 C 63 % 1003,4 hPa 0,0 l/m 2,9 km/h (1 Bft) SW 225 1,5 C 4,7 km/h (1 Bft)
25.03.2015 20:15 7,9 C 8,1 C 63 % 1003,4 hPa 0,0 l/m 2,9 km/h (1 Bft) SW 225 1,3 C 2,3 km/h (1 Bft)
25.03.2015 20:20 7,9 C 7,9 C 63 % 1003,4 hPa 0,0 l/m 2,3 km/h (1 Bft) SW 225 1,3 C 0,0 km/h (0 Bft)
25.03.2015 20:25 7,8 C 7,8 C 64 % 1003,5 hPa 0,0 l/m 0,3 km/h (0 Bft) SW 225 1,4 C 0,0 km/h (0 Bft)
25.03.2015 20:30 7,5 C 7,6 C 64 % 1003,5 hPa 0,0 l/m 0,0 km/h (0 Bft) W-SW 247 1,1 C 0,0 km/h (0 Bft)
25.03.2015 20:35 7,3 C 7,3 C 64 % 1003,5 hPa 0,0 l/m 0,0 km/h (0 Bft) W-SW 247 1,0 C 0,0 km/h (0 Bft)
25.03.2015 20:40 7,3 C 7,3 C 65 % 1003,5 hPa 0,0 l/m 0,0 km/h (0 Bft) S 180 1,2 C 0,0 km/h (0 Bft)
25.03.2015 20:45 7,9 C 7,8 C 67 % 1003,6 hPa 0,0 l/m 1,8 km/h (1 Bft) W 270 2,2 C 6,4 km/h (2 Bft)
25.03.2015 20:50 8,0 C 7,9 C 66 % 1003,6 hPa 0,0 l/m 3,2 km/h (1 Bft) W-SW 247 2,0 C 5,0 km/h (1 Bft)
25.03.2015 20:55 8,1 C 8,0 C 67 % 1003,6 hPa 0,0 l/m 4,2 km/h (1 Bft) W 270 2,3 C 7,6 km/h (2 Bft)
25.03.2015 21:00 8,1 C 7,9 C 67 % 1003,6 hPa 0,0 l/m 4,7 km/h (1 Bft) W-SW 247 2,3 C 7,1 km/h (2 Bft)
25.03.2015 21:05 8,1 C 7,9 C 67 % 1003,8 hPa 0,0 l/m 4,7 km/h (1 Bft) W-SW 247 2,3 C 4,3 km/h (1 Bft)
25.03.2015 21:10 8,1 C 8,0 C 66 % 1003,8 hPa 0,0 l/m 4,3 km/h (1 Bft) W-SW 247 2,1 C 7,7 km/h (2 Bft)
25.03.2015 21:15 8,0 C 8,0 C 66 % 1003,8 hPa 0,0 l/m 3,9 km/h (1 Bft) W 270 2,0 C 4,2 km/h (1 Bft)
25.03.2015 21:20 8,0 C 7,9 C 66 % 1003,8 hPa 0,0 l/m 4,0 km/h (1 Bft) W-SW 247 2,0 C 4,5 km/h (1 Bft)
25.03.2015 21:25 7,9 C 7,8 C 67 % 1003,6 hPa 0,0 l/m 4,0 km/h (1 Bft) SW 225 2,2 C 5,5 km/h (1 Bft)
25.03.2015 21:30 7,8 C 7,7 C 67 % 1003,6 hPa 0,0 l/m 4,0 km/h (1 Bft) W 270 2,1 C 2,7 km/h (1 Bft)
25.03.2015 21:35 7,8 C 7,7 C 67 % 1003,6 hPa 0,0 l/m 4,0 km/h (1 Bft) SW 225 2,1 C 5,6 km/h (1 Bft)
25.03.2015 21:40 7,8 C 7,6 C 68 % 1003,6 hPa 0,0 l/m 4,2 km/h (1 Bft) SW 225 2,3 C 3,9 km/h (1 Bft)
25.03.2015 21:45 7,7 C 7,6 C 68 % 1003,6 hPa 0,0 l/m 4,0 km/h (1 Bft) W-SW 247 2,2 C 6,0 km/h (2 Bft)
25.03.2015 21:50 7,6 C 7,5 C 68 % 1003,6 hPa 0,0 l/m 3,7 km/h (1 Bft) W 270 2,1 C 3,7 km/h (1 Bft)
25.03.2015 21:55 7,4 C 7,4 C 68 % 1003,6 hPa 0,0 l/m 3,4 km/h (1 Bft) W-SW 247 1,9 C 6,1 km/h (2 Bft)
25.03.2015 22:00 7,4 C 7,4 C 68 % 1003,6 hPa 0,0 l/m 3,4 km/h (1 Bft) W-SW 247 1,9 C 6,4 km/h (2 Bft)
25.03.2015 22:05 7,4 C 7,2 C 69 % 1003,8 hPa 0,0 l/m 4,2 km/h (1 Bft) W-SW 247 2,1 C 7,2 km/h (2 Bft)
25.03.2015 22:10 7,4 C 7,2 C 69 % 1003,8 hPa 0,0 l/m 4,2 km/h (1 Bft) SW 225 2,1 C 3,9 km/h (1 Bft)
25.03.2015 22:15 7,3 C 7,2 C 69 % 1003,8 hPa 0,0 l/m 3,7 km/h (1 Bft) W-SW 247 2,0 C 4,2 km/h (1 Bft)
25.03.2015 22:20 7,3 C 7,2 C 69 % 1003,8 hPa 0,0 l/m 3,1 km/h (1 Bft) W-SW 247 2,0 C 3,9 km/h (1 Bft)
25.03.2015 22:25 7,2 C 7,1 C 69 % 1003,9 hPa 0,0 l/m 2,9 km/h (1 Bft) S 180 1,9 C 3,9 km/h (1 Bft)
25.03.2015 22:30 7,1 C 7,1 C 69 % 1003,9 hPa 0,0 l/m 3,2 km/h (1 Bft) NW 315 1,8 C 2,4 km/h (1 Bft)
25.03.2015 22:35 7,1 C 7,0 C 70 % 1003,9 hPa 0,0 l/m 3,4 km/h (1 Bft) W-SW 247 2,0 C 16,6 km/h (3 Bft)
25.03.2015 22:40 7,2 C 7,0 C 71 % 1003,9 hPa 0,0 l/m 4,2 km/h (1 Bft) W-SW 247 2,3 C 9,7 km/h (2 Bft)
25.03.2015 22:45 7,1 C 6,9 C 71 % 1004,1 hPa 0,0 l/m 4,5 km/h (1 Bft) W 270 2,2 C 6,4 km/h (2 Bft)
25.03.2015 22:50 7,1 C 6,9 C 71 % 1004,1 hPa 0,0 l/m 4,2 km/h (1 Bft) W-SW 247 2,2 C 4,5 km/h (1 Bft)
25.03.2015 22:55 7,1 C 7,0 C 72 % 1004,1 hPa 0,0 l/m 3,9 km/h (1 Bft) W 270 2,4 C 8,9 km/h (2 Bft)
25.03.2015 23:00 7,1 C 7,0 C 72 % 1004,1 hPa 0,0 l/m 3,9 km/h (1 Bft) W-SW 247 2,4 C 3,2 km/h (1 Bft)
25.03.2015 23:05 7,0 C 6,9 C 72 % 1004,2 hPa 0,0 l/m 3,7 km/h (1 Bft) W-SW 247 2,3 C 4,8 km/h (1 Bft)
25.03.2015 23:10 6,9 C 6,8 C 72 % 1004,2 hPa 0,0 l/m 2,7 km/h (1 Bft) W-NW 292 2,2 C 2,3 km/h (1 Bft)
25.03.2015 23:15 7,0 C 6,9 C 74 % 1004,2 hPa 0,0 l/m 3,4 km/h (1 Bft) W-SW 247 2,7 C 7,9 km/h (2 Bft)
25.03.2015 23:20 7,0 C 6,7 C 74 % 1004,2 hPa 0,0 l/m 4,5 km/h (1 Bft) W-SW 247 2,7 C 3,5 km/h (1 Bft)
25.03.2015 23:25 7,0 C 6,7 C 74 % 1004,2 hPa 0,0 l/m 5,0 km/h (1 Bft) W-NW 292 2,7 C 6,4 km/h (2 Bft)
25.03.2015 23:30 6,9 C 6,6 C 75 % 1004,2 hPa 0,0 l/m 4,8 km/h (1 Bft) W-SW 247 2,8 C 3,7 km/h (1 Bft)
25.03.2015 23:35 6,9 C 6,6 C 75 % 1004,2 hPa 0,0 l/m 4,7 km/h (1 Bft) W 270 2,8 C 6,3 km/h (2 Bft)
25.03.2015 23:40 6,8 C 6,6 C 75 % 1004,2 hPa 0,0 l/m 4,5 km/h (1 Bft) W-SW 247 2,7 C 3,9 km/h (1 Bft)
25.03.2015 23:45 6,8 C 6,5 C 76 % 1004,6 hPa 0,0 l/m 4,3 km/h (1 Bft) SW 225 2,9 C 3,4 km/h (1 Bft)
25.03.2015 23:50 6,8 C 6,5 C 76 % 1004,6 hPa 0,0 l/m 4,7 km/h (1 Bft) W-SW 247 2,9 C 6,1 km/h (2 Bft)
25.03.2015 23:55 6,6 C 6,4 C 76 % 1004,6 hPa 0,0 l/m 4,2 km/h (1 Bft) W-NW 292 2,7 C 8,2 km/h (2 Bft)
_ Min-Zeit 03:15 03:15 11:55 15:40 - 20:40 - - 05:25 20:40
Minimum _ 0,8 C 0,6 C 45 % 1002,5 hPa - 0,0 km/h (0 Bft) - - -3,8 C 0,0 km/h (0 Bft)
_ Max-Zeit 12:55 11:20 23:55 00:17 23:55 12:00 - - 12:45 22:35
Maximum _ 13,7 C 17,3 C 76 % 1007,2 hPa 0,0 l/m 7,6 km/h
NO (2 Bft)
- - 3,4 C 16,6 km/h
W-SW (3 Bft)
Durchschnitt _ 7,9 C 8,8 C 61 % 1004,5 hPa #0,0 l/m 2,1 km/h (1 Bft) O-NO - 0,7 C 2,7 km/h (1 Bft)